�������l�o���
Date,Time,MP-1(��Sv/h),MP-2(��Sv/h),MP-3(��Sv/h),MP-4(��Sv/h),MP-5(��Sv/h),MP-6(��Sv/h),MP-7(��Sv/h),MP-8(��Sv/h),����,����(m/s),���J
2017/06/28,00:00,1.008,1.610,1.066,1.905,1.311,0.532,0.975,0.901,�k�k��,0.6,��
2017/06/28,00:10,1.006,1.609,1.065,1.904,1.312,0.532,0.978,0.900,�k�k��,2.2,��
2017/06/28,00:20,1.006,1.608,1.064,1.905,1.310,0.532,0.977,0.897,�k�k��,3.0,��
2017/06/28,00:30,1.008,1.608,1.066,1.908,1.311,0.530,0.975,0.899,�k�k��,2.8,��
2017/06/28,00:40,1.006,1.608,1.064,1.904,1.311,0.532,0.976,0.899,�k,2.2,��
2017/06/28,00:50,1.006,1.609,1.065,1.904,1.313,0.531,0.975,0.898,�k,3.3,��
2017/06/28,01:00,1.005,1.605,1.065,1.903,1.310,0.532,0.975,0.900,�k,3.0,��
2017/06/28,01:10,1.005,1.608,1.066,1.905,1.309,0.531,0.975,0.898,�k,3.0,��
2017/06/28,01:20,1.004,1.608,1.063,1.905,1.310,0.531,0.973,0.897,�k�k��,2.3,��
2017/06/28,01:30,1.006,1.608,1.064,1.905,1.310,0.530,0.975,0.899,-,CALM,��
2017/06/28,01:40,1.006,1.606,1.062,1.906,1.310,0.531,0.975,0.899,�k�k��,0.9,��
2017/06/28,01:50,1.005,1.607,1.063,1.905,1.310,0.531,0.975,0.900,�k�k��,1.5,��
2017/06/28,02:00,1.004,1.609,1.062,1.907,1.311,0.531,0.975,0.898,�k�k��,2.9,��
2017/06/28,02:10,1.004,1.608,1.064,1.904,1.311,0.532,0.975,0.899,�k�k��,2.9,��
2017/06/28,02:20,1.005,1.610,1.066,1.907,1.309,0.531,0.973,0.898,�k�k��,3.3,��
2017/06/28,02:30,1.005,1.608,1.064,1.907,1.312,0.532,0.976,0.899,�k�k��,3.2,��
2017/06/28,02:40,1.006,1.608,1.067,1.906,1.310,0.532,0.974,0.899,�k�k��,3.3,��
2017/06/28,02:50,1.007,1.606,1.064,1.903,1.311,0.532,0.975,0.901,�k�k��,4.1,��
2017/06/28,03:00,1.006,1.608,1.064,1.906,1.310,0.530,0.975,0.898,�k�k��,4.4,��
2017/06/28,03:10,1.006,1.606,1.065,1.905,1.312,0.531,0.974,0.899,�k�k��,2.9,��
2017/06/28,03:20,1.005,1.606,1.065,1.905,1.310,0.531,0.974,0.897,�k,2.0,��
2017/06/28,03:30,1.005,1.608,1.065,1.903,1.311,0.531,0.976,0.898,�k�k��,4.1,��
2017/06/28,03:40,1.005,1.608,1.066,1.906,1.310,0.533,0.976,0.899,�k�k��,1.2,��
2017/06/28,03:50,1.006,1.606,1.064,1.904,1.310,0.530,0.974,0.900,�k�k��,2.6,�L
2017/06/28,04:00,1.006,1.603,1.066,1.902,1.312,0.531,0.976,0.901,�k�k��,2.6,��
2017/06/28,04:10,1.006,1.606,1.066,1.904,1.312,0.531,0.974,0.899,�k�k��,0.6,��
2017/06/28,04:20,1.004,1.608,1.064,1.904,1.309,0.531,0.974,0.900,�k,2.0,��
2017/06/28,04:30,1.003,1.607,1.064,1.904,1.310,0.531,0.974,0.898,-,CALM,��
2017/06/28,04:40,1.005,1.607,1.064,1.902,1.312,0.531,0.974,0.898,-,CALM,��
2017/06/28,04:50,1.004,1.604,1.063,1.906,1.311,0.532,0.974,0.899,�k,1.1,��
2017/06/28,05:00,1.007,1.606,1.063,1.905,1.312,0.531,0.976,0.898,�k,1.5,��
2017/06/28,05:10,1.006,1.604,1.063,1.908,1.310,0.530,0.974,0.900,�k�k��,2.0,��
2017/06/28,05:20,1.005,1.606,1.063,1.901,1.312,0.531,0.976,0.899,�k�k��,2.3,��
2017/06/28,05:30,1.005,1.609,1.064,1.902,1.309,0.530,0.976,0.899,�k,1.9,��
2017/06/28,05:40,1.006,1.608,1.065,1.906,1.310,0.532,0.976,0.899,�k�k��,2.3,�L
2017/06/28,05:50,1.006,1.610,1.066,1.908,1.309,0.532,0.974,0.900,�k�k��,3.3,�L
2017/06/28,06:00,1.005,1.608,1.065,1.906,1.309,0.531,0.975,0.897,�k,1.7,��
2017/06/28,06:10,1.008,1.606,1.064,1.904,1.312,0.531,0.976,0.899,�k�k��,1.6,��
2017/06/28,06:20,1.005,1.608,1.066,1.905,1.310,0.532,0.974,0.900,�k�k��,1.4,��
2017/06/28,06:30,1.007,1.608,1.066,1.908,1.311,0.533,0.974,0.900,�k,1.7,��
2017/06/28,06:40,1.005,1.608,1.066,1.907,1.312,0.531,0.973,0.899,�k,2.3,��
2017/06/28,06:50,1.007,1.609,1.067,1.905,1.312,0.531,0.974,0.901,�k�k��,2.2,��
2017/06/28,07:00,1.004,1.606,1.066,1.904,1.311,0.530,0.972,0.900,�k,2.5,��
2017/06/28,07:10,1.003,1.606,1.066,1.905,1.310,0.529,0.973,0.900,�k�k��,2.5,��
2017/06/28,07:20,1.004,1.607,1.066,1.904,1.310,0.531,0.973,0.900,�k,2.0,��
2017/06/28,07:30,1.002,1.607,1.066,1.908,1.310,0.528,0.973,0.899,�k,3.6,��
2017/06/28,07:40,1.001,1.607,1.066,1.904,1.309,0.528,0.974,0.896,�k�k��,3.1,��
2017/06/28,07:50,1.001,1.606,1.066,1.904,1.308,0.526,0.974,0.897,�k�k��,2.2,��
2017/06/28,08:00,1.001,1.604,1.065,1.907,1.311,0.527,0.974,0.900,�k�k��,2.3,��
2017/06/28,08:10,1.002,1.606,1.064,1.906,1.308,0.529,0.973,0.898,�k�k��,2.8,��
2017/06/28,08:20,1.003,1.607,1.066,1.905,1.310,0.528,0.972,0.896,�k,2.9,��
2017/06/28,08:30,1.001,1.606,1.065,1.905,1.307,0.528,0.974,0.897,�k,2.8,��
2017/06/28,08:40,1.000,1.606,1.064,1.905,1.309,0.527,0.975,0.899,�k,3.5,��
2017/06/28,08:50,1.001,1.602,1.062,1.905,1.307,0.528,0.973,0.896,�k,4.1,��
2017/06/28,09:00,1.004,1.605,1.060,1.908,1.309,0.526,0.974,0.898,�k,4.4,��
2017/06/28,09:10,1.005,1.607,1.060,1.907,1.310,0.529,0.974,0.897,�k,4.1,��
2017/06/28,09:20,1.004,1.606,1.060,1.908,1.309,0.528,0.974,0.895,�k�k��,3.5,��
2017/06/28,09:30,1.003,1.604,1.065,1.907,1.309,0.529,0.974,0.897,�k�k��,4.7,��
2017/06/28,09:40,1.005,1.606,1.063,1.909,1.308,0.528,0.974,0.897,�k�k��,5.5,��
2017/06/28,09:50,1.004,1.606,1.064,1.906,1.311,0.529,0.975,0.896,�k��,5.2,��
2017/06/28,10:00,1.004,1.606,1.063,1.906,1.311,0.528,0.976,0.896,�k�k��,5.0,��
2017/06/28,10:10,1.005,1.603,1.063,1.906,1.311,0.529,0.975,0.895,�k�k��,4.0,��
2017/06/28,10:20,1.006,1.607,1.062,1.907,1.311,0.528,0.975,0.898,�k�k��,3.1,��
2017/06/28,10:30,1.007,1.605,1.063,1.912,1.309,0.528,0.974,0.898,�k�k��,3.7,��
2017/06/28,10:40,1.007,1.608,1.063,1.906,1.312,0.530,0.975,0.897,�k��,3.7,��
2017/06/28,10:50,1.006,1.605,1.063,1.908,1.313,0.530,0.976,0.896,�k��,3.3,��
2017/06/28,11:00,1.010,1.608,1.066,1.906,1.312,0.527,0.975,0.897,�k�k��,3.4,��
2017/06/28,11:10,1.005,1.607,1.065,1.911,1.312,0.529,0.975,0.897,�k��,2.8,��
2017/06/28,11:20,1.006,1.607,1.063,1.907,1.309,0.528,0.975,0.896,�k��,3.0,��
2017/06/28,11:30,1.004,1.608,1.065,1.909,1.313,0.528,0.975,0.897,���k��,3.0,��
2017/06/28,11:40,1.006,1.610,1.059,1.906,1.311,0.529,0.973,0.895,���k��,2.3,��
2017/06/28,11:50,1.006,1.609,1.061,1.905,1.312,0.529,0.975,0.899,�k��,3.4,��
2017/06/28,12:00,1.005,1.608,1.060,1.911,1.311,0.529,0.974,0.897,�k��,2.9,��
2017/06/28,12:10,1.006,1.608,1.063,1.910,1.313,0.528,0.973,0.896,�k��,2.9,��
2017/06/28,12:20,1.006,1.609,1.064,1.907,1.314,0.528,0.974,0.896,�k��,1.9,��
2017/06/28,12:30,1.005,1.606,1.063,1.909,1.312,0.529,0.973,0.896,���k��,1.1,��
2017/06/28,12:40,1.008,1.607,1.061,1.907,1.311,0.530,0.975,0.898,���k��,1.4,��
2017/06/28,12:50,1.006,1.609,1.063,1.909,1.315,0.529,0.976,0.897,���k��,1.1,��
2017/06/28,13:00,1.005,1.608,1.061,1.911,1.311,0.528,0.974,0.898,���쓌,1.9,��
2017/06/28,13:10,1.007,1.608,1.062,1.908,1.312,0.528,0.974,0.896,��,0.9,��
2017/06/28,13:20,1.007,1.610,1.064,1.910,1.314,0.529,0.974,0.897,�쓌,1.1,��
2017/06/28,13:30,1.005,1.609,1.062,1.909,1.312,0.531,0.976,0.897,�쓌,1.2,��
2017/06/28,13:40,1.008,1.611,1.065,1.912,1.313,0.529,0.976,0.896,���쓌,1.4,��
2017/06/28,13:50,1.004,1.610,1.066,1.913,1.312,0.528,0.974,0.899,���쓌,1.7,��
2017/06/28,14:00,1.009,1.609,1.065,1.910,1.316,0.528,0.975,0.898,���쓌,2.0,��
2017/06/28,14:10,1.007,1.607,1.066,1.913,1.314,0.529,0.976,0.898,���쓌,2.0,��
2017/06/28,14:20,1.005,1.611,1.066,1.913,1.312,0.529,0.975,0.898,��,2.2,��
2017/06/28,14:30,1.006,1.610,1.067,1.913,1.312,0.531,0.976,0.896,��,2.8,��
2017/06/28,14:40,1.008,1.611,1.063,1.912,1.314,0.529,0.974,0.897,���쓌,2.0,��
2017/06/28,14:50,1.005,1.608,1.065,1.906,1.313,0.529,0.975,0.897,���쓌,3.7,��
2017/06/28,15:00,1.006,1.610,1.064,1.909,1.316,0.529,0.975,0.899,���쓌,2.5,��
2017/06/28,15:10,1.008,1.610,1.066,1.909,1.316,0.530,0.975,0.897,���쓌,3.3,��
2017/06/28,15:20,1.008,1.608,1.067,1.906,1.313,0.531,0.977,0.897,���쓌,2.9,��
2017/06/28,15:30,1.009,1.610,1.063,1.908,1.314,0.529,0.976,0.899,���쓌,2.5,��
2017/06/28,15:40,1.009,1.612,1.067,1.910,1.317,0.531,0.976,0.898,���쓌,3.0,��
2017/06/28,15:50,1.007,1.613,1.066,1.908,1.316,0.532,0.975,0.897,���쓌,2.3,��
2017/06/28,16:00,1.008,1.612,1.067,1.908,1.315,0.531,0.976,0.898,���쓌,3.2,��
2017/06/28,16:10,1.009,1.613,1.065,1.907,1.314,0.530,0.975,0.896,�쓌,2.5,��
2017/06/28,16:20,1.007,1.613,1.067,1.910,1.314,0.531,0.977,0.898,�쓌,3.2,��
2017/06/28,16:30,1.008,1.611,1.066,1.907,1.316,0.532,0.976,0.898,�쓌,3.0,��
2017/06/28,16:40,1.008,1.614,1.064,1.910,1.316,0.530,0.976,0.897,�쓌,2.6,��
2017/06/28,16:50,1.008,1.612,1.065,1.910,1.313,0.529,0.976,0.900,�쓌,2.0,��
2017/06/28,17:00,1.009,1.612,1.070,1.913,1.317,0.530,0.975,0.897,���쓌,2.3,��
2017/06/28,17:10,1.004,1.615,1.068,1.911,1.314,0.532,0.976,0.897,���쓌,2.0,��
2017/06/28,17:20,1.010,1.614,1.070,1.911,1.317,0.531,0.975,0.897,�쓌,2.3,��
2017/06/28,17:30,1.006,1.615,1.067,1.910,1.313,0.531,0.976,0.898,�쓌,1.4,��
2017/06/28,17:40,1.010,1.615,1.069,1.912,1.315,0.532,0.977,0.899,���쓌,1.2,��
2017/06/28,17:50,1.006,1.618,1.069,1.910,1.316,0.531,0.976,0.897,�쓌,1.7,��
2017/06/28,18:00,1.005,1.615,1.068,1.911,1.315,0.531,0.975,0.898,�쓌,2.0,��
2017/06/28,18:10,1.007,1.617,1.069,1.910,1.318,0.533,0.975,0.900,�쓌,1.7,��
2017/06/28,18:20,1.006,1.618,1.068,1.907,1.316,0.532,0.974,0.900,�쓌,1.4,��
2017/06/28,18:30,1.008,1.616,1.066,1.914,1.315,0.531,0.974,0.901,���쓌,1.4,��
2017/06/28,18:40,1.009,1.616,1.067,1.913,1.316,0.532,0.974,0.900,��쓌,1.2,��
2017/06/28,18:50,1.010,1.618,1.071,1.915,1.316,0.533,0.975,0.901,��쓌,0.9,��
2017/06/28,19:00,1.008,1.616,1.070,1.912,1.320,0.533,0.977,0.900,��,0.9,��
2017/06/28,19:10,1.010,1.618,1.070,1.914,1.321,0.533,0.974,0.901,�쓌,0.9,��
2017/06/28,19:20,1.009,1.615,1.070,1.910,1.318,0.534,0.972,0.901,��쐼,1.1,��
2017/06/28,19:30,1.008,1.615,1.071,1.915,1.320,0.532,0.972,0.900,��쓌,1.2,��
2017/06/28,19:40,1.009,1.616,1.071,1.913,1.318,0.534,0.976,0.901,��,1.4,��
2017/06/28,19:50,1.011,1.616,1.069,1.914,1.317,0.534,0.976,0.900,��쐼,1.4,��
2017/06/28,20:00,1.008,1.617,1.070,1.916,1.319,0.534,0.976,0.901,��,1.1,��
2017/06/28,20:10,1.009,1.617,1.071,1.915,1.320,0.533,0.977,0.900,��쐼,0.9,��
2017/06/28,20:20,1.009,1.615,1.072,1.912,1.318,0.534,0.979,0.899,��,0.6,��
2017/06/28,20:30,1.009,1.617,1.069,1.914,1.316,0.535,0.975,0.901,��쐼,0.6,��
2017/06/28,20:40,1.010,1.616,1.069,1.913,1.319,0.532,0.976,0.900,-,CALM,��
2017/06/28,20:50,1.010,1.615,1.071,1.915,1.317,0.533,0.976,0.900,-,CALM,��
2017/06/28,21:00,1.009,1.613,1.071,1.918,1.318,0.534,0.978,0.900,��,0.6,��
2017/06/28,21:10,1.009,1.614,1.069,1.912,1.318,0.531,0.978,0.901,��쓌,1.2,��
2017/06/28,21:20,1.009,1.614,1.069,1.913,1.319,0.533,0.978,0.900,��쓌,0.9,��
2017/06/28,21:30,1.010,1.615,1.070,1.913,1.319,0.532,0.976,0.900,-,CALM,��
2017/06/28,21:40,1.008,1.614,1.070,1.914,1.318,0.534,0.976,0.902,-,CALM,��
2017/06/28,21:50,1.010,1.615,1.072,1.913,1.321,0.533,0.978,0.901,-,CALM,��
2017/06/28,22:00,1.011,1.617,1.070,1.914,1.319,0.534,0.977,0.901,-,CALM,��
2017/06/28,22:10,1.010,1.614,1.072,1.914,1.321,0.533,0.977,0.902,-,CALM,��
2017/06/28,22:20,1.010,1.615,1.069,1.915,1.318,0.534,0.976,0.899,��,0.9,��
2017/06/28,22:30,1.009,1.618,1.070,1.917,1.317,0.533,0.977,0.900,��쐼,0.8,��
2017/06/28,22:40,1.009,1.615,1.072,1.913,1.318,0.534,0.976,0.899,��쐼,0.8,��
2017/06/28,22:50,1.007,1.617,1.069,1.912,1.320,0.533,0.977,0.900,��,0.6,��
2017/06/28,23:00,1.009,1.616,1.071,1.914,1.317,0.535,0.978,0.900,��,0.9,��
2017/06/28,23:10,1.008,1.615,1.072,1.913,1.320,0.534,0.979,0.901,�쓌,0.6,��
2017/06/28,23:20,1.010,1.614,1.070,1.912,1.321,0.533,0.977,0.900,���k��,0.6,��
2017/06/28,23:30,1.008,1.616,1.069,1.918,1.319,0.533,0.976,0.901,��,0.9,��
2017/06/28,23:40,1.011,1.614,1.073,1.912,1.318,0.533,0.975,0.901,���쓌,0.9,��
2017/06/28,23:50,1.008,1.615,1.069,1.914,1.317,0.531,0.980,0.900,���k��,1.1,��
